Location: Härggis
(46.9540°N, 8.4897°E)
Time: 20:19:22
(UTC+00:00)

NOSS 2-2 (C) - Pass Details

Date: 27 May 2022
Orbit: 439 x 1763 km, 63.3° (Epoch: 02 June)

Event Time Altitude Azimuth Distance (km) Brightness Sun altitude
Rises 00:16:15 0° 317° (NW) 3,030 7.6 -20.7°
Reaches altitude 10° 00:18:18 10° 313° (NW) 2,256 6.8 -20.7°
Maximum altitude 00:23:24 59° 235° (SW) 1,060 4.4 -20.4°
Enters shadow 00:26:39 31° 168° (SSE) 1,767 5.4 -20.3°
